Content
SEND FEEDBACK

Daily
Averages
Monthly
Summary
United States of America

BROOKLYN, NEW YORK


Home > North America > United States > New York
Elevation: 2 feet     Latitude: 40 36N     Longitude: 073 59W

WEATHER
 
SELECT A DAY
Number of Records: 188,335;   Date Range: 1/1/95 - 10/29/14
 
SHARE

PRINT THIS DATA

[ ← Previous Day ]
WEATHER ALMANAC - MARCH 5, 2013
[ Next Day → ]
[ °C ]   °F
Weather ElementAverageHighLow
Temperature39.4 °F48 °F (2:51 pm)32 °F (2:51 am)
Dewpoint23.2 °F32 °F (11:51 pm)19 °F (2:51 am)
Humidity53.9 %76 % (11:51 pm)36 % (2:51 pm)
Barometer30.00 in30.02 in (7:51 am)29.93 in (2:51 am)
Wind Speed9.6 mph19.6 mph (2:51 am)
Wind Gust25.3 mph (4:51 am)
Weather ElementAverage
Visibility10 mi
Wind DirectionSSW (210.5 °)

Weather ElementTotal
Precipitation---
Heating Degree Days25 (Base 65)
Averaged from 22 records on March 5, 2013
WEATHER CONDITIONS BREAKOUT
WIND DIRECTION BREAKOUT
WEATHER BY HOUR - MARCH 5, 2013
[ °C ]   °F
Local TimeTemperatureDewpointHumidityBarometerVisibilityWind DirectionWind SpeedGust SpeedPrecipitationEventsConditions
2:51 AM32.0 °F19.0 °F59 %29.93 in10.0 miNW (310°)19.6 mphPartly Cloudy
3:51 AM32.0 °F19.0 °F59 %29.94 in10.0 miNW (310°)17.3 mphClear
4:51 AM32.0 °F19.9 °F61 %29.96 in10.0 miNW (320°)17.3 mph25.3 mphClear
5:51 AM32.0 °F19.9 °F61 %29.98 in10.0 miNW (320°)13.8 mphPartly Cloudy
6:51 AM32.0 °F19.9 °F61 %30.00 in10.0 miNW (310°)12.7 mphScattered Clouds
7:51 AM34.0 °F19.9 °F56 %30.02 in10.0 miNNW (330°)13.8 mphScattered Clouds
8:51 AM37.0 °F21.0 °F52 %30.02 in10.0 miNNW (340°)13.8 mph23.0 mphScattered Clouds
9:51 AM39.9 °F21.0 °F47 %30.02 in10.0 miNNW (340°)12.7 mphScattered Clouds
10:51 AM43.0 °F21.9 °F43 %30.01 in10.0 miNNW (330°)11.5 mphPartly Cloudy
11:51 AM44.1 °F21.9 °F42 %30.00 in10.0 miNorth (10°)8.1 mph18.4 mphPartly Cloudy
12:51 PM45.0 °F23.0 °F42 %29.99 in10.0 miWNW (300°)5.8 mph17.3 mphPartly Cloudy
1:51 PM46.9 °F21.9 °F37 %29.99 in10.0 miNorth (350°)8.1 mphScattered Clouds
2:51 PM48.0 °F21.9 °F36 %29.99 in10.0 miNNE (30°)9.2 mph16.1 mphScattered Clouds
3:51 PM48.0 °F21.9 °F36 %29.99 in10.0 miNorth (360°)11.5 mph19.6 mphScattered Clouds
4:51 PM46.9 °F21.9 °F37 %29.98 in10.0 miNE (50°)8.1 mphScattered Clouds
5:51 PM44.1 °F23.0 °F43 %30.00 in10.0 miENE (70°)3.5 mphScattered Clouds
6:51 PM39.9 °F28.0 °F63 %30.02 in10.0 miSE (130°)5.8 mphScattered Clouds
7:51 PM37.9 °F27.0 °F65 %30.02 in10.0 miCalmScattered Clouds
8:51 PM37.9 °F28.0 °F68 %30.02 in10.0 miESE (120°)4.6 mphScattered Clouds
9:51 PM37.9 °F28.0 °F68 %30.02 in10.0 miESE (110°)4.6 mphMostly Cloudy
10:51 PM37.9 °F30.0 °F73 %30.02 in10.0 miEast (100°)3.5 mphMostly Cloudy
11:51 PM39.0 °F32.0 °F76 %30.00 in10.0 miEast (90°)5.8 mphOvercast
Hourly data recorded from KJFK, located miles away from Brooklyn, New York







STORIES FROM OUR PARTNERS